GFSGBSN_850_dewp_363.txt.gz
Dewpoint
3 5 6 6 6 5 4 3 -2 -6 -11 -15 -16 -18 -18 -20 -21 -22 -23 -24 -25 -26 -27 -28 -28 -29 -29 -27 -29 -12 -9 -9 -8 -8 -6 -6 -9 -5 -1 -2 -4 -4 -5 -7 -7 4 5
2 3 5 6 6 6 4 4 3 -1 -4 -9 -13 -17 -18 -19 -20 -22 -23 -24 -25 -26 -26 -27 -28 -28 -20 -9 -29 -22 -19 -16 -7 -8 -9 -7 -12 -14 -2 -4 -6 -7 -7 -8 4 6 6
-2 1 3 4 6 6 5 4 4 3 -1 -5 -11 -15 -17 -19 -20 -22 -23 -24 -25 -26 -26 -27 -27 -24 -17 -29 -27 -11 -8 -8 -7 -7 -10 -11 -12 -3 -4 -5 -6 -7 -7 -7 3 6 5
-2 -3 1 3 5 6 6 4 4 4 2 -1 -6 -13 -16 -18 -20 -21 -23 -24 -24 -25 -26 -26 -24 -13 -16 -30 -30 -24 -7 -8 -7 -8 -7 -8 -14 -10 -6 -6 -7 -7 -6 -5 -2 3 3
-1 -2 -1 1 3 5 6 6 4 4 4 1 -2 -10 -15 -18 -19 -21 -22 -23 -24 -25 -25 -24 -14 -8 -18 -27 -28 -26 -7 -8 -10 -9 -9 -7 -6 -7 -7 -6 -5 -5 -5 -5 -6 4 3
-1 -1 -1 -1 2 4 5 6 6 4 4 3 -0 -7 -14 -16 -18 -20 -21 -23 -24 -24 -21 -10 -3 -2 -16 -19 -8 -15 -13 -12 -11 -11 -10 -9 -8 -7 -6 -5 -3 -4 -5 -6 -4 4 8
-2 -3 -1 -1 0 2 4 6 5 4 4 4 2 -4 -11 -14 -16 -18 -20 -22 -6 6 5 -14 -17 -12 -10 -9 -9 -8 -14 -12 -12 -11 -8 -8 -7 -5 -6 -6 -6 -5 -5 -5 3 4 5
-2 -3 -4 -2 -2 -0 3 5 5 5 4 4 3 -2 -9 -13 -15 -16 -19 1 5 6 5 1 3 2 -13 -8 -4 -10 -13 -14 -13 -10 -6 -6 -5 -7 -7 -6 -5 -4 -4 3 4 4 5
-2 -3 -5 -3 -3 -4 -1 3 5 5 4 3 3 0 -6 -12 -14 -15 -19 3 4 3 2 0 1 2 -5 -4 -3 -8 -8 -7 -7 -7 -5 -4 -5 -6 -5 -5 -4 -4 -3 2 4 4 4
-3 -2 -5 -3 -2 -3 -3 3 4 5 4 4 4 2 -4 -10 -13 -16 -4 4 3 3 2 0 3 -3 -2 -3 -5 -12 -11 -9 -7 -5 -5 -5 -6 -6 -5 -4 -4 -3 -3 3 5 6 8
-4 -3 -6 -4 -2 -3 -6 2 3 5 4 4 4 2 -3 -9 -6 -5 6 5 4 4 -3 -4 4 -2 -8 -7 -11 -11 -11 -10 -6 -6 -6 -4 -5 -5 -5 -5 -6 -5 1 3 3 2 5
-4 -4 -7 -4 -3 -3 -4 -1 3 4 4 3 3 3 -3 -6 -10 4 6 6 3 7 8 4 -4 -4 -4 -6 -10 -10 -11 -10 -9 -7 -7 -7 -8 -9 -8 -10 -10 -9 -8 -5 -4 -4 4
-4 -4 -5 -8 -3 -2 -4 -2 3 4 4 3 3 3 -1 -5 -8 3 3 4 6 7 -4 -5 -6 -8 -7 -7 -8 -10 -7 -6 -5 -4 -4 -6 -7 -9 -11 -10 -9 -8 -7 -3 -2 5 7
-3 -3 -6 -8 -5 -2 -3 -3 2 3 4 3 3 3 -1 -8 1 2 2 8 4 -5 6 -7 -7 -8 -8 -10 -9 -7 -6 -6 -7 -6 -5 -4 -1 -8 -11 -10 -8 -7 -6 -1 -1 6 8
-3 -4 -7 -8 -5 -3 -2 -2 1 3 4 4 3 2 -1 -12 -7 3 5 8 5 6 -1 -8 -9 -8 -10 -9 -6 -6 -6 -5 -7 -7 -5 -0 -4 -8 -9 -8 -9 -5 -3 -4 6 6 7
-4 -5 -8 -8 -6 -4 -3 -4 1 3 4 4 3 2 -5 -10 -6 3 5 4 4 5 -2 -9 -8 -9 -8 -7 -5 -5 -6 -6 -6 -7 -4 -3 -4 -5 -6 -5 -5 -6 -5 -2 2 8 9
-4 -5 -7 -8 -6 -4 -3 -1 0 3 4 4 3 -1 1 -8 -1 6 3 4 4 0 -1 -2 -7 -6 -7 -5 -5 -4 -3 -3 -4 -4 -5 -1 -3 -3 -5 -5 -4 -4 -4 -1 1 7 9
-5 -7 -8 -7 -6 -4 -2 -3 0 4 4 4 -0 4 6 -6 1 3 3 3 -2 -2 -3 -3 -2 -7 -3 -4 -1 0 -1 -2 -3 -3 -3 -1 1 -0 -2 -3 -7 -7 -6 -2 -1 1 8
-5 -8 -9 -8 -6 -4 -3 -1 2 3 4 3 -1 5 3 2 -4 3 -0 -4 -7 -8 -3 -3 -2 -1 -4 0 2 1 -1 -2 -1 -2 -1 -2 0 2 1 -0 -4 -3 -3 -5 -2 4 7
-6 -7 -10 -7 -8 -5 -3 -3 1 3 4 2 2 7 6 7 6 -0 -6 -6 -12 -14 -4 -4 -3 -2 0 2 1 1 0 -2 -3 -0 1 -2 1 2 4 2 -2 -1 -0 -0 -1 4 7
-7 -7 -11 -9 -8 -5 -3 -0 -0 2 3 2 0 6 5 5 4 4 -4 -7 -5 -7 -4 -3 -3 -2 2 1 1 2 -1 -3 -2 -1 0 -2 -0 -2 -3 -2 -2 -1 1 1 3 5 3
-7 -9 -11 -10 -9 -4 -4 -1 -0 2 3 2 2 6 2 -1 0 3 1 -3 -5 -6 -2 -2 -2 1 -0 1 0 1 -0 -3 -1 -1 0 -0 -1 -2 -0 -2 -1 1 2 3 3 4 4
-7 -10 -11 -10 -6 -4 -4 -1 -0 2 2 2 -1 2 5 -1 -2 2 1 -1 -4 -4 2 3 2 2 1 1 -2 -3 -5 -2 -1 -0 1 1 1 1 -0 -0 -1 1 -1 -0 1 2 4
-7 -12 -12 -9 -5 -3 -3 -0 0 2 2 0 -1 5 7 4 -5 -1 -1 -1 -5 -2 3 4 1 1 0 -2 -2 -2 -2 -2 -3 -1 -0 2 3 2 2 -0 -0 0 -2 0 2 2 2
-9 -11 -9 -7 -4 -3 -3 0 0 1 3 2 -1 5 6 6 -8 -4 -1 -3 4 4 4 3 3 -1 -1 -2 2 1 2 0 -1 -1 2 0 3 4 3 3 1 -1 -1 1 1 2 2
-9 -10 -9 -6 -3 -4 -3 -0 0 2 2 1 -2 0 4 6 -0 5 -2 3 5 4 4 3 3 1 -2 1 1 2 2 1 1 -2 -3 1 2 4 2 4 5 1 -3 -2 -1 4 1
-10 -10 -8 -4 -3 -2 -2 -0 0 2 2 1 -3 -0 3 7 7 7 2 4 3 3 4 3 -1 -4 -4 1 2 1 1 0 1 0 -1 1 4 3 3 4 3 0 -2 -2 2 1 1
-9 -9 -7 -4 -4 -1 -0 0 3 3 1 -1 -3 -0 5 7 7 7 6 3 3 2 3 2 -1 -3 -2 0 1 1 0 -2 1 -0 -1 0 4 4 3 4 2 -2 -1 0 1 2 1
-9 -8 -5 -4 -3 -1 -0 1 2 1 -0 -3 -1 4 7 7 6 6 6 5 3 0 -1 0 -2 -2 -2 3 2 2 3 1 1 1 3 -0 2 6 2 3 4 3 2 1 1 1 2

GFSGBSN_850_dewp_366.txt.gz
Dewpoint
-1 1 1 4 5 4 6 5 4 3 0 -3 -8 -14 -16 -17 -19 -20 -22 -23 -24 -25 -25 -26 -27 -28 -29 -25 -29 -21 -11 -13 -11 -12 -9 -5 -7 -6 -1 -2 -3 -3 -4 -6 -7 -6 1
-2 0 0 2 4 5 4 5 4 4 3 1 -2 -7 -13 -16 -18 -19 -21 -22 -23 -24 -25 -26 -27 -27 -25 -15 -29 -29 -29 -21 -15 -8 -7 -6 -7 -9 -5 -2 -4 -7 -7 -7 -6 7 7
-4 -5 -3 -1 1 3 5 6 6 4 4 3 1 -1 -8 -15 -17 -18 -21 -22 -22 -23 -25 -25 -26 -26 -23 -30 -29 -26 -13 -12 -9 -7 -8 -8 -7 -8 -6 -5 -6 -6 -6 -4 2 3 6
-1 -3 -6 -3 -2 2 4 5 6 5 4 4 3 1 -4 -13 -16 -18 -20 -22 -22 -23 -24 -24 -24 -22 -24 -30 -30 -30 -16 -7 -7 -6 -9 -8 -9 -8 -7 -6 -7 -6 -7 -4 2 6 4
-1 -2 -1 -6 -1 -1 2 3 6 5 4 4 4 3 -1 -9 -14 -17 -20 -21 -22 -23 -24 -24 -21 -13 -20 -23 -27 -26 -27 -8 -7 -11 -10 -7 -7 -7 -7 -6 -5 -6 -5 -5 -3 8 6
-2 -2 -2 -2 -3 -1 -1 2 5 5 5 4 4 3 1 -6 -12 -16 -19 -20 -21 -22 -22 -18 -7 -8 -24 -21 -9 -9 -26 -8 -10 -11 -8 -6 -6 -6 -6 -6 -3 -4 -5 -5 4 6 9
-1 -2 -2 -3 -3 -1 -1 -1 3 5 4 4 4 3 3 -3 -10 -15 -19 -19 -9 1 2 -15 -15 -17 -21 -8 -7 -9 -15 -11 -13 -10 -9 -7 -6 -5 -6 -6 -6 -6 -5 0 5 5 8
-2 -2 -2 -2 -3 -3 -1 0 1 4 5 5 4 3 3 -1 -9 -14 -15 -6 6 5 4 0 -0 1 -19 -10 -4 -7 -11 -14 -12 -10 -6 -6 -5 -7 -7 -6 -5 -5 -3 6 6 6 8
-2 -3 -4 -3 -7 -4 -2 -0 -0 2 5 5 4 3 3 -0 -9 -14 -15 -1 5 7 4 -0 -0 0 -3 -5 -3 -7 -12 -12 -11 -10 -5 -5 -6 -6 -6 -5 -4 -4 -3 5 6 6 7
-4 -3 -4 -5 -11 -6 -2 -3 -1 2 4 5 4 4 3 -1 -10 -11 -13 5 6 7 -5 -8 3 -0 2 -2 -4 -9 -8 -8 -7 -9 -5 -5 -6 -6 -5 -4 -4 -3 -5 4 7 8 11
-4 -3 -3 -6 -11 -9 -3 -2 -4 -1 3 5 5 3 3 0 -6 -7 5 5 5 7 -15 -8 4 -1 0 -4 -11 -9 -11 -9 -6 -5 -5 -4 -5 -5 -4 -5 -5 -4 2 5 5 3 5
-4 -3 -3 -5 -12 -12 -4 -2 -3 -1 2 5 4 3 3 1 -6 -7 5 5 6 -0 -12 3 0 -0 -3 -6 -9 -10 -11 -9 -8 -7 -7 -6 -7 -8 -8 -10 -6 -1 -2 -3 -4 -2 5
-3 -3 -3 -4 -11 -14 -6 -2 -3 -0 2 4 4 3 3 2 -6 -5 4 6 4 -2 -8 -3 -4 -4 -5 -5 -7 -8 -8 -6 -5 -4 -4 -6 -7 -8 -10 -10 -8 -8 -7 -2 -1 2 2
-3 -3 -3 -4 -9 -14 -11 -3 -2 -1 2 4 5 3 3 2 -4 -4 3 7 -2 -8 2 -5 -7 -6 -8 -7 -9 -9 -7 -7 -7 -6 -5 -4 -3 -7 -11 -9 -8 -7 -7 -2 -3 6 7
-3 -3 -2 -4 -8 -14 -11 -4 -3 -1 2 3 4 3 2 -1 -1 -5 2 8 -2 0 -2 -7 -8 -7 -9 -10 -8 -6 -6 -6 -6 -7 -4 -3 -4 -8 -8 -9 -8 -5 -2 -3 6 6 7
-2 -4 -2 -4 -8 -14 -10 -4 -3 -1 2 4 4 3 2 -2 -4 -6 5 5 1 3 1 -8 -6 -8 -7 -9 -4 -5 -5 -6 -7 -7 -6 -3 -3 -4 -6 -5 -5 -6 -4 -1 3 8 7
-3 -1 -3 -4 -8 -14 -9 -5 -3 -1 2 2 3 2 -2 -8 -5 0 6 3 2 -1 1 -1 -8 -7 -8 -6 -5 -5 -5 -3 -7 -4 -5 -3 -3 -3 -5 -4 -3 -4 -4 -0 3 5 6
-4 -4 -3 -5 -8 -14 -10 -5 -3 -1 0 3 3 0 5 -3 2 4 5 2 -2 -3 -3 -1 -4 -6 -6 -4 -2 -1 -1 -2 -3 -4 -2 -1 -0 0 -4 -2 -7 -8 -3 -3 -1 1 7
-3 -2 -3 -5 -8 -12 -8 -4 -3 -0 0 2 1 -0 6 -1 -1 1 0 -1 -5 -8 -6 -3 -2 -3 -4 1 1 -0 -1 -2 -1 -2 -2 -2 0 2 0 -3 -5 -3 -3 -2 1 4 6
-3 -3 -3 -5 -9 -11 -10 -5 -2 0 1 3 -1 3 5 4 4 -1 -4 -5 -10 -17 -12 -8 -3 -1 1 1 1 1 0 -2 -2 1 -1 -1 1 1 2 -0 -3 -1 -0 -1 -2 1 6
-2 -2 -3 -7 -10 -12 -8 -5 -2 -0 0 2 -1 3 3 3 5 5 1 -10 -6 -15 -3 -4 -2 -1 1 1 1 1 -2 -1 -1 -0 -0 -1 -1 -1 -1 -2 -1 0 0 1 5 4 2
-3 -3 -4 -7 -9 -11 -9 -5 -2 -1 -0 1 -1 3 3 3 -1 5 4 -6 -3 -13 -4 -2 -2 -0 -0 0 -1 1 -2 -1 0 -1 -0 -2 -2 -1 0 -0 0 3 3 4 4 4 5
-3 -3 -5 -7 -10 -10 -8 -3 -2 -0 -0 1 2 1 2 1 1 1 2 -1 -3 -6 -2 3 2 1 0 -0 -2 -3 -4 -2 -1 0 1 -1 0 0 1 -1 -2 0 -0 1 2 3 4
-3 -4 -7 -9 -9 -9 -5 -3 -2 -2 -0 1 1 0 5 5 -0 -1 -1 -1 -3 -4 0 3 1 0 -0 -3 -3 -3 -3 -2 -0 2 -0 2 2 1 2 -1 -1 -1 0 1 3 2 2
-4 -7 -8 -9 -9 -8 -5 -3 -2 -2 -0 1 2 1 4 6 -3 -4 -2 -0 2 1 4 3 3 -1 -1 -2 1 1 2 -0 -1 0 1 1 2 3 3 2 0 0 1 1 1 2 2
-6 -7 -9 -9 -9 -6 -4 -2 -1 -1 -0 1 2 1 2 4 2 1 -5 -1 3 4 3 3 2 1 -2 1 1 2 3 1 0 -2 -2 1 2 3 2 3 4 1 -2 -2 -1 2 1
-7 -8 -10 -9 -8 -4 -3 -2 -1 -0 0 2 2 2 1 2 6 7 3 3 2 3 4 3 -1 -3 -3 1 2 2 2 0 1 -0 -1 2 3 3 3 3 2 -0 -3 -2 1 -1 1
-7 -8 -10 -9 -7 -3 -2 -3 -2 -0 1 2 2 2 0 4 6 7 7 5 4 3 3 1 -1 -2 -1 0 1 1 1 -0 1 -1 -1 1 3 3 4 3 1 -1 -1 -1 -0 2 1
-7 -11 -10 -9 -5 -3 -2 -1 -0 1 2 2 2 0 -0 2 5 6 7 7 4 2 1 -1 -0 -2 -2 2 1 3 2 1 1 1 3 -0 2 4 2 2 4 3 2 1 -0 0 1

GFSGBSN_850_dewp_369.txt.gz
Dewpoint
-17 -14 -10 -1 1 1 3 3 3 5 4 4 1 -2 -6 -13 -17 -18 -20 -21 -23 -24 -25 -26 -27 -28 -28 -25 -30 -24 -14 -22 -14 -7 -5 -5 -5 -5 -3 -2 -2 -1 -2 -3 -5 5 7
-8 -10 -13 -12 -2 -1 1 5 3 3 4 4 3 2 -2 -6 -14 -17 -20 -21 -22 -23 -24 -26 -27 -27 -26 -22 -28 -29 -28 -25 -12 -12 -8 -5 -6 -7 -5 -2 -2 -5 -5 -3 4 6 8
-4 -5 -12 -16 -9 -4 -2 1 5 4 5 4 4 3 2 -2 -9 -16 -19 -21 -22 -22 -24 -24 -26 -26 -26 -29 -29 -29 -19 -14 -15 -8 -7 -5 -6 -10 -10 -4 -5 -6 -5 2 6 6 5
-1 -4 -4 -10 -19 -13 -4 -2 2 4 5 4 4 4 3 1 -6 -16 -19 -21 -21 -22 -23 -23 -24 -24 -27 -29 -30 -30 -26 -8 -7 -6 -7 -8 -6 -6 -7 -5 -6 -6 -6 -3 6 7 6
-1 -2 -3 -4 -10 -15 -6 -4 -2 2 4 5 4 4 3 2 -3 -14 -19 -20 -21 -22 -21 -23 -23 -18 -24 -25 -27 -21 -29 -21 -7 -6 -11 -8 -8 -8 -6 -5 -4 -4 -4 -4 1 7 7
-1 -1 -2 -3 -9 -11 -6 -7 -3 -2 1 5 3 4 4 3 -1 -13 -18 -19 -20 -20 -20 -20 -12 -9 -25 -23 -12 -9 -18 -24 -6 -9 -6 -6 -6 -5 -5 -5 -3 -4 -4 2 7 8 7
-3 -1 -2 -5 -10 -16 -8 -3 -2 -2 -1 4 3 3 4 3 1 -11 -17 -18 -14 -1 -0 -18 -14 -23 -18 -9 -10 -9 -12 -15 -12 -9 -6 -6 -6 -4 -5 -5 -6 -5 -4 5 8 7 8
-3 -2 -2 -4 -6 -13 -17 -3 -2 -1 -2 1 4 4 4 3 2 -9 -15 -11 5 3 5 0 -2 -12 -21 -17 -9 -8 -9 -14 -10 -9 -7 -5 -4 -6 -6 -6 -5 -5 1 6 7 7 8
-3 -3 -3 -4 -4 -8 -16 -7 -3 -2 -0 -0 4 5 3 3 2 -9 -14 -9 -2 6 5 1 -1 0 -4 -8 -9 -9 -10 -13 -10 -8 -6 -5 -6 -6 -6 -5 -4 -3 -2 6 6 8 7
-3 -3 -3 -5 -4 -6 -14 -15 -3 -2 -2 -1 1 5 3 3 -4 -8 -12 -4 5 8 -1 -7 0 -1 -2 -3 -4 -10 -9 -12 -9 -9 -5 -6 -6 -5 -5 -5 -4 -2 -4 3 8 9 10
-4 -3 -3 -4 -5 -5 -11 -18 -5 -2 -2 -3 0 4 4 3 1 -6 0 5 5 9 -10 -7 3 0 1 -4 -10 -7 -10 -8 -5 -7 -5 -6 -4 -4 -3 -4 -4 0 2 6 7 6 7
-5 -3 -3 -4 -4 -5 -8 -17 -10 -3 -3 -1 -0 3 4 3 2 -7 0 4 8 2 -8 -0 2 2 2 -4 -10 -9 -10 -9 -7 -5 -6 -6 -7 -6 -6 -7 -2 2 4 1 -2 2 5
-4 -4 -3 -3 -4 -5 -7 -15 -13 -3 -3 -1 -1 2 4 3 0 -4 -1 6 4 -1 -9 1 1 -1 -3 -4 -6 -8 -7 -5 -5 -2 -3 -5 -6 -8 -9 -2 -0 -3 -2 4 4 5 4
-4 -4 -3 -3 -4 -5 -6 -13 -15 -4 -3 -1 -0 2 3 2 2 0 -0 6 -1 -7 -4 -4 -5 -3 -5 -6 -7 -7 -7 -5 -6 -5 -4 -4 -4 -6 -8 -5 -1 -2 -4 -1 -1 2 5
-4 -5 -5 -3 -3 -4 -5 -11 -15 -7 -3 0 0 3 4 1 2 1 1 7 1 -5 -8 -5 -7 -4 -7 -8 -7 -5 -5 -6 -5 -5 -3 -3 -3 -7 -7 -8 -7 -4 -2 -2 6 6 7
-5 -4 -3 -2 -3 -4 -5 -10 -13 -7 -3 0 1 2 3 1 1 0 4 6 4 1 3 -8 -4 -6 -5 -8 -3 -3 -5 -6 -6 -6 -6 -1 -1 -4 -5 -5 -4 -4 -1 2 4 7 7
-5 -4 -4 -4 -3 -4 -5 -11 -13 -6 -3 0 1 3 1 -1 1 -1 5 5 2 -3 -1 1 -5 -6 -7 -6 -3 -3 -4 -4 -6 -5 -5 -3 -1 -2 -4 -3 -2 -3 -1 2 3 5 4
-6 -3 -4 -4 -3 -4 -5 -10 -14 -5 -2 -0 1 2 -0 1 0 1 4 3 -1 -2 -5 1 -4 -6 -5 -3 -2 -2 -2 -3 -5 -3 -2 -1 1 1 -4 -4 -6 -6 -2 -1 -0 3 7
-6 -4 -3 -4 -4 -4 -5 -10 -14 -5 -2 -0 1 2 4 -0 -2 3 2 3 -2 -6 -8 -3 0 -3 -3 2 2 0 1 -2 -2 -1 2 0 2 1 -2 -3 -5 -2 -3 -0 3 4 6
-5 -3 -3 -4 -4 -4 -6 -10 -9 -4 -2 -0 0 3 4 2 2 0 1 0 1 -5 -9 -13 -3 -0 2 2 1 2 1 -2 -1 1 -2 -0 2 2 1 -0 -2 0 -0 -2 -2 -0 6
-5 -4 -3 -4 -3 -4 -7 -10 -9 -4 -2 -1 0 2 3 4 4 4 -0 -3 -4 -5 -12 -5 -2 0 2 3 2 3 -0 1 0 1 -1 2 2 1 0 -2 0 1 0 2 3 3 2
-6 -4 -3 -4 -3 -4 -8 -11 -7 -3 -2 -1 -0 1 4 1 1 4 5 -2 -5 -6 -11 -1 -0 -0 1 2 2 3 1 2 3 1 -0 -0 2 0 2 1 1 4 3 3 4 5 5
-6 -4 -2 -2 -3 -5 -7 -9 -6 -5 -2 -1 1 1 3 2 2 2 3 2 -6 -5 -9 -2 2 2 1 -0 -1 -2 -1 -0 2 3 2 2 3 2 2 -0 -1 2 1 3 3 3 4
-4 -3 -2 -2 -4 -7 -9 -9 -5 -2 -1 -1 0 2 2 4 0 -1 -3 0 -2 -2 -2 3 2 2 -0 -3 -2 -2 -1 0 2 3 1 2 2 2 3 0 3 -1 1 0 3 3 3
-4 -2 -2 -3 -6 -8 -10 -9 -4 -2 -1 -1 -0 1 2 5 0 -1 -3 -1 -1 -3 2 4 3 -0 -2 -2 3 3 3 2 0 2 2 1 3 4 6 2 1 1 2 3 2 3 2
-3 -2 -2 -6 -8 -11 -10 -6 -3 -3 -1 -1 0 1 2 2 3 -2 -2 -5 2 3 4 3 2 -0 -2 2 3 4 4 2 1 -0 -0 1 2 4 5 4 3 1 -1 -1 -0 3 2
-2 -3 -6 -8 -11 -12 -8 -4 -3 -2 -1 -1 0 1 2 1 4 6 6 -2 -1 3 5 3 1 -2 -2 3 3 4 4 1 2 3 2 3 3 3 3 5 2 -1 -2 -1 1 0 2
-4 -6 -7 -10 -11 -11 -6 -3 -3 -2 -1 -1 1 2 2 1 1 5 7 6 3 3 5 1 0 -0 1 3 3 3 4 2 2 0 1 3 5 4 4 4 4 -1 -1 1 1 2 2
-6 -8 -10 -12 -11 -9 -4 -3 -3 -3 -1 -0 1 2 2 1 1 4 5 6 6 5 3 -0 1 -1 -1 3 3 2 3 3 3 2 2 2 3 4 3 3 4 3 2 -0 -1 0 2

GFSGBSN_850_dewp_372.txt.gz
Dewpoint
-12 -12 -16 -21 -24 -15 -5 0 2 3 4 3 4 4 2 -2 -10 -14 -18 -20 -22 -23 -24 -25 -26 -27 -28 -13 -22 -24 -11 -17 -14 -8 -3 -5 -5 -7 -8 -10 -8 -6 -9 -5 1 6 6
-9 -11 -9 -13 -21 -25 -14 -3 -1 2 3 3 3 4 4 2 -3 -10 -16 -19 -21 -22 -23 -24 -26 -27 -18 -17 -26 -28 -29 -23 -10 -2 -3 -4 -6 -7 -9 -9 -7 -7 -6 -2 4 7 8
-0 -4 -12 -12 -13 -20 -26 -18 -5 -1 3 3 6 4 4 3 1 -6 -15 -19 -21 -23 -23 -23 -24 -26 -18 -18 -27 -28 -25 -14 -11 -5 -5 -5 -6 -6 -9 -8 -4 -5 -6 0 5 6 8
-1 -0 -4 -10 -12 -16 -21 -25 -16 -5 -2 2 5 5 4 4 3 -2 -13 -18 -20 -22 -23 -23 -24 -24 -11 -28 -29 -29 -24 -10 -13 -6 -4 -4 -5 -6 -8 -4 -6 -7 -6 -5 6 6 5
-2 -2 -2 -4 -9 -13 -20 -22 -24 -15 -6 -1 1 5 3 4 3 -0 -12 -17 -19 -21 -23 -23 -23 -23 -15 -25 -26 -23 -28 -12 -9 -1 -4 -9 -5 -7 -6 -6 -6 -6 -8 -7 5 5 5
-4 -3 -2 -2 -5 -10 -14 -22 -19 -16 -11 -6 -4 1 4 3 3 1 -11 -16 -19 -20 -19 -21 -21 -10 -23 -17 -10 -7 -19 -19 -10 -4 -6 -5 -8 -9 -9 -7 -7 -7 -6 -5 1 6 5
-5 -4 -3 -2 -2 -5 -9 -16 -23 -7 -13 -5 -5 -2 5 2 3 1 -10 -17 -2 4 0 -8 -9 -16 -16 -11 -12 -8 -9 -14 -7 -6 -6 -6 -7 -9 -12 -8 -9 -7 -6 -5 5 6 7
-3 -6 -3 -3 -2 -4 -6 -11 -21 -12 -4 -6 -3 -4 5 2 3 1 -5 -5 2 1 5 3 -2 -7 -14 -12 -7 -5 -9 -11 -7 -6 -8 -6 -6 -10 -11 -9 -6 -6 -5 -1 6 6 6
-4 -5 -4 -3 -3 -4 -5 -7 -17 -20 -7 -5 -3 -3 1 4 3 1 -5 -6 2 5 6 2 1 1 -2 -7 -11 -8 -10 -13 -8 -8 -7 -7 -8 -10 -8 -6 -5 -5 -6 0 1 6 6
-5 -5 -5 -3 -3 -4 -5 -6 -12 -21 -11 -4 -3 -1 -1 4 2 -0 -4 -8 3 6 3 -7 -2 -1 -1 -5 -11 -11 -9 -14 -8 -8 -8 -8 -10 -7 -8 -8 -7 -6 -7 -5 4 5 6
-3 -4 -4 -4 -2 -3 -5 -5 -7 -18 -18 -4 -3 -2 -1 3 4 3 -1 4 4 8 -6 -12 -2 -0 -1 -8 -14 -10 -8 -12 -9 -9 -8 -8 -8 -6 -5 -8 -8 -6 -3 -2 4 4 6
-3 -3 -4 -5 -2 -2 -4 -5 -6 -15 -20 -5 -4 -2 -1 3 3 2 -3 1 8 6 -8 -5 0 1 -0 -4 -10 -8 -8 -10 -11 -9 -8 -9 -7 -9 -7 -5 -5 1 2 3 3 3 3
-4 -3 -4 -3 -4 -2 -4 -5 -5 -13 -19 -4 -3 -1 -1 2 4 1 -2 4 7 1 -11 1 2 1 -3 -7 -10 -9 -8 -8 -8 -6 -6 -8 -6 -8 -5 1 1 1 2 2 2 2 1
-4 -4 -4 -4 -4 -4 -3 -5 -4 -11 -18 -6 -3 -1 -1 1 3 3 1 6 2 -11 -11 -2 -1 -1 -3 -9 -10 -10 -9 -9 -11 -9 -7 -6 -4 -6 -8 -4 -1 0 -2 -3 -1 -3 -1
-4 -4 -5 -4 -4 -3 -3 -4 -4 -9 -17 -5 -3 -1 -2 1 3 3 1 8 -4 -11 -17 -4 -2 -1 -7 -9 -9 -9 -8 -10 -8 -8 -6 -6 -6 -8 -8 -8 -6 -2 -3 -4 2 4 1
-3 -4 -5 -5 -4 -4 -4 -4 -4 -7 -17 -4 -1 1 -1 2 3 3 1 5 -2 -4 1 -5 -2 -6 -7 -9 -8 -9 -8 -10 -8 -9 -7 -7 -5 -6 -6 -7 -6 -5 -4 -0 -1 0 -1
-4 -4 -5 -5 -4 -3 -3 -3 -3 -7 -15 -3 -1 1 -2 0 4 2 2 4 1 -1 -3 -2 -5 -5 -11 -11 -10 -8 -9 -11 -9 -8 -7 -4 -4 -2 -5 -4 -5 -3 -3 1 0 3 -1
-4 -5 -6 -5 -3 -4 -3 -3 -4 -8 -10 -3 -0 2 1 2 3 -1 1 2 -0 -1 -5 -5 -1 -7 -9 -10 -5 -8 -10 -11 -12 -8 -5 -4 -2 -1 -4 -5 -5 -4 -2 -1 -2 2 4
-7 -6 -8 -6 -4 -3 -3 -3 -3 -10 -10 -1 -0 1 3 3 2 -1 -3 -0 1 -1 -8 -4 -1 -5 -9 -9 -3 -5 -8 -4 -7 -5 -3 -1 -0 0 -1 -3 -5 -3 -3 -2 0 -0 2
-8 -6 -7 -7 -4 -3 -2 -3 -4 -12 -7 -2 -1 3 3 2 1 -3 -3 0 2 0 -1 -6 -9 -2 -5 -7 -1 0 -0 -1 -2 -2 -1 -1 1 -3 -2 -3 -3 -1 -3 -4 -3 -2 -0
-7 -6 -7 -6 -4 -3 -2 -3 -5 -12 -5 -1 -1 1 2 3 2 -1 -4 -1 0 2 -5 -10 -5 -2 -5 -4 0 -2 -0 1 0 -1 -0 2 3 1 -1 -3 -3 -3 -3 -3 -2 -1 -1
-6 -6 -7 -5 -3 -3 -3 -3 -7 -10 -3 -1 -1 1 3 1 -0 -1 -2 -3 -1 -3 -3 -8 -6 -1 -4 -2 -3 0 -1 -1 -0 1 -1 0 3 1 1 -2 -2 -0 -1 -0 1 1 2
-5 -6 -5 -4 -3 -3 -3 -4 -8 -9 -5 -2 -2 -1 0 1 1 -0 -1 -4 -3 -4 -8 -9 -6 1 1 -4 -3 -3 -2 -2 -1 -0 1 2 2 1 2 -1 -0 2 0 -0 2 2 2
-6 -5 -4 -3 -2 -2 -2 -5 -8 -7 -7 -3 -4 -1 1 3 1 0 -5 -2 -5 -5 -6 -6 -3 2 1 1 2 1 1 1 1 2 -1 2 1 1 2 0 7 2 -0 -1 2 2 2
-6 -5 -3 -2 -3 -2 -2 -7 -9 -10 -6 -4 -3 -1 1 4 1 -1 -3 -5 -4 -6 -4 -4 -4 3 2 -1 2 1 2 -0 -0 1 0 -1 1 4 4 2 1 1 1 2 1 3 1
-5 -5 -3 -1 -1 -2 -6 -10 -12 -10 -4 -3 -2 -1 -1 3 3 -1 -3 -6 -5 -5 -4 -4 2 2 3 1 -0 3 3 0 2 -0 -1 0 -0 1 6 3 2 -0 -1 -1 -1 3 2
-5 -2 -2 -2 -2 -6 -10 -12 -11 -5 -4 -2 -1 -1 -0 2 2 4 -2 -5 -7 -3 1 4 2 2 2 1 0 2 4 0 2 1 1 1 0 -0 1 3 2 -2 -1 -1 2 1 2
-3 -2 -1 -3 -6 -10 -12 -11 -7 -4 -3 -1 -1 -0 0 2 2 3 6 5 -6 -0 2 3 1 1 2 2 2 4 2 2 2 1 0 -0 2 2 2 3 9 -2 -1 -0 3 2 2
-1 -2 -5 -8 -12 -13 -12 -8 -4 -3 -2 -1 -1 0 1 1 2 2 4 5 4 4 7 4 4 1 1 2 2 2 3 3 1 3 -0 3 1 2 1 3 2 -1 -0 2 2 2 2